OpenBCM V1.13 (Linux)

Packet Radio Mailbox

DB0FHN

[JN59NK Nuernberg]

 Login: GUEST





  
I0OJJ  > KEPS     28.01.25 05:52l 328 Lines 15576 Bytes #999 (0) @ AMSAT
BID : ORB25028.1
Read: DJ6UX GUEST
Subj: 2Line Orbital Elements 25028.AMSAT
Path: DB0FHN<DB0FFL<OE5XBL<OE6XPE<DB0ERF<DK0WUE<DK0WUE<VK5RSV<PI8ZTM<I0OJJ
Sent: 250128/0345z @:I0OJJ.ITA.EU [Rome] obcm1.08-6-g5b69
From: I0OJJ @ I0OJJ.ITA.EU (Gustavo)
To:   KEPS @ AMSAT
X-Info: This message was generated automatically


QST de W1STR

AMSAT Orbital Elements for Amateur Satellites in TLE Format
From Orbital Analysis Office
New England Sci-Tech STEM Education Center
Natick, MA January 28, 2025
To all radio amateurs


These element sets describe the orbits of various satellites 
in use by the amateur radio community. For details see:
www.amsat.org/keplerian-elements-formats/

A daily update of element sets is available at:
www.amsat.org/tle/daily-bulletin.txt
or without bulletin text:
www.amsat.org/tle/dailytle.txt


AO-07
1 07530U 74089B   25027.63259507 -.00000024  00000-0  14125-3 0  9999
2 07530 101.9921  30.4867 0012266  16.9836  92.7957 12.53685528297167
UO-11
1 14781U 84021B   25027.48017532  .00002729  00000-0  29881-3 0  9993
2 14781  97.7361 356.6973 0009373  62.2684 297.9482 14.88567834181831
AO-27
1 22825U 93061C   25027.13614740  .00000297  00000-0  13071-3 0  9993
2 22825  98.7579  87.9089 0009107 138.9514 221.2355 14.30716234634638
FO-29
1 24278U 96046B   25027.29767875  .00000061  00000-0  10074-3 0  9997
2 24278  98.5884 298.6432 0349556 327.9836  30.0485 13.53234005404746
NOAA-15
1 25338U 98030A   25027.86289391  .00000409  00000-0  18625-3 0  9991
2 25338  98.5496  56.1012 0010755  33.1886 326.9967 14.26868057389476
GO-32
1 25397U 98043D   25027.49759913  .00000279  00000-0  14116-3 0  9997
2 25397  98.9541   3.9588 0000749 177.7552 182.3630 14.24242364379342
ISS
1 25544U 98067A   25027.90209603  .00004864  00000-0  91193-4 0  9994
2 25544  51.6403 281.8976 0002375 150.6350 312.7990 15.50613590493405
NO-44
1 26931U 01043C   25027.49451797  .00000513  00000-0  22367-3 0  9993
2 26931  67.0510 111.9049 0006172 262.3356  97.7045 14.31598658218058
SO-50
1 27607U 02058C   25027.89095549  .00002597  00000-0  34944-3 0  9992
2 27607  64.5531 249.8909 0040174   8.4209 351.7561 14.80847389189781
CO-55
1 27844U 03031E   25026.95769148  .00000845  00000-0  38849-3 0  9998
2 27844  98.6783  36.9548 0009118 209.9627 150.1031 14.23787472119622
CO-57
1 27848U 03031J   25027.75887034  .00000708  00000-0  33270-3 0  9997
2 27848  98.6810  37.8483 0008774 225.4173 134.6290 14.23154052119526
RS-22
1 27939U 03042A   25027.86556881  .00002597  00000-0  42483-3 0  9999
2 27939  98.3108 194.2688 0012601  71.6550  64.4665 14.71660904141301
NOAA-18
1 28654U 05018A   25027.76274799  .00000415  00000-0  24381-3 0  9997
2 28654  98.8547 108.6894 0014867 144.0963 216.1211 14.13499025 14981
CO-58
1 28895U 05043F   25027.29456292  .00003578  00000-0  60378-3 0  9999
2 28895  98.2269 170.2366 0015087  13.0949 347.0645 14.70018098 27356
CO-65
1 32785U 08021C   25027.54761770  .00008696  00000-0  67037-3 0  9994
2 32785  97.7656 358.1014 0008588 313.2556  46.7950 15.01828784909095
AAUSAT2
1 32788U 08021F   25027.48405049  .00080648  00000-0  17372-2 0  9997
2 32788  97.6049  18.2961 0007558  96.8256 263.3851 15.44283498912584
CO-66
1 32791U 08021J   25027.85624040  .00019401  00000-0  10944-2 0  9993
2 32791  97.7152   5.5550 0001934 256.0557 104.0459 15.13205748910461
RS-30
1 32953U 08025A   25027.85253340  .00000033  00000-0  16489-3 0  9990
2 32953  82.5058 309.7461 0019511 338.2349  21.7900 12.43157915757041
NOAA-19
1 33591U 09005A   25027.81842712  .00000387  00000-0  23070-3 0  9997
2 33591  99.0173  91.6786 0013976  22.7365 337.4423 14.13270613823355
SRMSAT
1 37841U 11058D   25026.89918786  .00000656  00000-0  21326-3 0  9993
2 37841  19.9703 243.4651 0011749  34.9038 355.4633 14.11346542686200
ZACUBE-1
1 39417U 13066B   25027.37973856  .00006886  00000-0  63354-3 0  9996
2 39417  97.7638 345.4577 0047553 134.8346 225.6754 14.94204152605008
Delfi-N3xt
1 39428U 13066N   25027.31770543  .00011203  00000-0  12238-2 0  9993
2 39428  97.8385 306.7520 0092069  78.5713 282.5825 14.84947398599279
GOMX-1
1 39430U 13066Q   25027.90998306  .00005077  00000-0  80796-3 0  9997
2 39430  97.7012 254.6421 0133286 256.7539 101.8770 14.66632321595952
LO-74
1 39440U 13066AA  25027.42057966  .00006962  00000-0  73978-3 0  9991
2 39440  97.8364 333.2086 0062768 258.7354 100.6804 14.87863765601626
AO-73
1 39444U 13066AE  25027.86537478  .00011068  00000-0  90560-3 0  9993
2 39444  97.7483 349.8904 0043836 109.6779 250.9182 14.98740261604272
DTUSAT-2
1 40030U 14033W   25027.87380585  .00011102  00000-0  78761-3 0  9995
2 40030  98.0389 353.7236 0011220 139.1849 221.0218 15.04890865576927
EO-80
1 40032U 14033Y   25027.43610357  .00011821  00000-0  83667-3 0  9991
2 40032  98.0288 353.1014 0011159  90.4290 269.8214 15.04960225576323
XW-2C
1 40906U 15049H   25027.35317079  .00354523  49246-4  11253-2 0  9994
2 40906  97.4421  61.1000 0003901 164.9639 195.1750 15.91175149519384
LILACSAT-2
1 40908U 15049K   25027.84188588  .00016397  00000-0  49598-3 0  9990
2 40908  97.5166  45.3347 0008316 277.6416  82.3882 15.34251756517849
IO-86
1 40931U 15052B   25025.93518289  .00001895  00000-0  16605-3 0  9993
2 40931   5.9982 200.2908 0012808 359.8798   0.1327 14.78536532504580
Horyu-4
1 41340U 16012D   25026.99552149  .00027349  00000-0  95305-3 0  9991
2 41340  30.9989 304.8586 0005764 112.6093 247.5160 15.28446276492274
Lapan A3
1 41603U 16040E   25027.85750978  .00005796  00000-0  21254-3 0  9994
2 41603  97.1385  37.7963 0012291  31.6672 328.5305 15.28279658477506
CAS-2T
1 41847U 16066G   25027.22101322  .00003307  00000-0  48296-3 0  9997
2 41847  98.4360 102.8180 0347978 221.6039 135.8197 14.42791781431788
CAS-4B
1 42759U 17034B   25027.89004347  .00048621  00000-0  98173-3 0  9995
2 42759  43.0133  22.0043 0014394  85.8427 274.4077 15.45642603421957
CAS-4A
1 42761U 17034D   25027.47268051  .00046176  00000-0  92083-3 0  9993
2 42761  43.0168  22.4378 0015557  90.2068 270.0573 15.46005488421897
TechnoSat
1 42829U 17042E   25027.45021617  .00005326  00000-0  43082-3 0  9997
2 42829  97.3915 202.6242 0013267  31.7583 328.4438 15.00101783410750
AO-91
1 43017U 17073E   25027.45155765  .00015859  00000-0  86792-3 0  9990
2 43017  97.5486 261.7047 0183160 259.8042  98.2482 15.01041325389210
S-Net D
1 43186U 18014G   25027.30386908  .00007953  00000-0  50054-3 0  9990
2 43186  97.5752 291.6899 0008750 333.2543  26.8234 15.09432693382253
S-Net B
1 43187U 18014H   25027.24145032  .00008074  00000-0  50822-3 0  9993
2 43187  97.5761 291.5929 0009302 327.9319  32.1343 15.09418223382245
S-Net A
1 43188U 18014J   25027.23837537  .00007991  00000-0  50277-3 0  9992
2 43188  97.5766 291.7236 0009226 328.7124  31.3555 15.09436006382247
S-Net C
1 43189U 18014K   25027.30985617  .00008203  00000-0  51611-3 0  9994
2 43189  97.5787 291.7852 0010564 319.1104  40.9332 15.09417579380807
Ten-Koh
1 43677U 18084G   25027.44711439  .00005044  00000-0  41889-3 0  9993
2 43677  98.0807 194.4693 0012821 350.5954   9.5026 14.99175461340288
PO-101
1 43678U 18084H   25027.91382348  .00002531  00000-0  22422-3 0  9999
2 43678  98.0898 199.1512 0009182  12.9990 347.1466 14.97180091340525
QO-100
1 43700U 18090A   25027.77202184  .00000157  00000-0  00000+0 0  9991
2 43700   0.0180  75.6871 0000867 240.8088 114.4961  1.00269536 22855
MinXSS-2
1 43758U 18099A   25027.13076944  .00021410  00000-0  10137-2 0  9996
2 43758  97.5234  93.2027 0012469 264.4950  95.4862 15.19293206336660
AO-95
1 43770U 18099N   25027.79629906  .00013803  00000-0  77896-3 0  9997
2 43770  97.5140  87.5653 0010821 317.4718  42.5674 15.13214411336447
RANGE-A
1 43773U 18099R   25027.10524859  .00007615  00000-0  51324-3 0  9998
2 43773  97.4703  79.4139 0010638 292.6355  67.3748 15.06898188336101
MOVE-II
1 43780U 18099Y   25027.14458328  .00062699  00000-0  16064-2 0  9991
2 43780  97.4884  96.9229 0003864 271.4067  88.6735 15.39151709337077
SNUSat 2
1 43782U 18099AA  25027.15122876  .00010871  00000-0  64939-3 0  9990
2 43782  97.4835  84.7025 0011533 253.5460 106.4503 15.11215816336323
SnugLite
1 43784U 18099AC  25027.12628478  .00013063  00000-0  73292-3 0  9996
2 43784  97.4641  84.0318 0002483 256.2065 103.8890 15.13481924336421
ITASat 1
1 43786U 18099AE  25027.16127183  .00010537  00000-0  65031-3 0  9994
2 43786  97.4798  84.5700 0014290 310.0401  49.9574 15.10007054336309
EAGLET 1
1 43790U 18099AJ  25027.39108380  .00006303  00000-0  42378-3 0  9997
2 43790  97.4979  85.1075 0011300 288.2673  71.7325 15.07050122335994
ESEO
1 43792U 18099AL  25027.18040596  .00002629  00000-0  20660-3 0  9997
2 43792  97.4680  79.8691 0008472 242.0217 118.0151 15.01685277335796
CSIM
1 43793U 18099AM  25027.19549683  .00065344  00000-0  16798-2 0  9999
2 43793  97.5054  98.9093 0007531 244.0564 115.9906 15.39016303336922
JO-97
1 43803U 18099AX  25027.15281889  .00016307  00000-0  85257-3 0  9990
2 43803  97.4895  87.7228 0007006 248.1005 111.9483 15.15926264336526
Suomi 100
1 43804U 18099AY  25027.11508286  .00015004  00000-0  82302-3 0  9991
2 43804  97.4957  87.2890 0012387 250.4880 109.5014 15.14195113336478
ISAT
1 43879U 18111D   25027.27551901  .00023800  00000-0  10380-2 0  9996
2 43879  97.6056 299.4128 0008731 316.3787  43.6758 15.22131718333367
UWE-4
1 43880U 18111E   25027.23342568  .00020500  00000-0  96147-3 0  9991
2 43880  97.5990 298.6279 0012588 324.6064  35.4334 15.19630019333338
Sparrow
1 43881U 18111F   25027.21701703  .00024708  00000-0  10513-2 0  9996
2 43881  97.6182 301.7805 0008174   3.0624 357.0661 15.22968683333432
Prox-1
1 44339U 19036A   25026.86233690  .00014935  00000-0  21148-2 0  9994
2 44339  23.9959 217.3035 0008236 354.3896   5.6507 14.75360841298214
SONATE
1 44400U 19038Q   25027.47195990  .00062822  00000-0  89229-3 0  9996
2 44400  97.7104  40.8463 0011454  33.1421 327.0548 15.56133507308675
